Time,TemperatureF,DewpointF,PressureIn,WindDirection,WindDirectionDegrees,WindSpeedMPH,WindSpeedGustMPH,Humidity,HourlyPrecipIn,Conditions,Clouds,dailyrainin,SoftwareType,DateUTC
2013-11-01 00:12:00,31.0,31.0,-100.00,WSW,248,3.0,5.0,100,0.00,,,0.21,,2013-11-01 06:12:00,
2013-11-01 00:42:00,31.0,31.0,-100.00,SW,223,4.0,8.0,100,0.00,,,0.21,,2013-11-01 06:42:00,
2013-11-01 01:12:00,31.0,31.0,-100.00,SSW,195,2.0,6.0,100,0.00,,,0.21,,2013-11-01 07:12:00,
2013-11-01 01:42:00,31.0,31.0,-100.00,SSW,205,5.0,9.0,98,0.00,,,0.21,,2013-11-01 07:42:00,
2013-11-01 02:11:00,31.0,31.0,-100.00,SSW,206,2.0,4.0,98,0.00,,,0.21,,2013-11-01 08:11:00,
2013-11-01 02:42:00,31.0,31.0,-100.00,West,272,1.0,3.0,98,0.00,,,0.21,,2013-11-01 08:42:00,
2013-11-01 03:11:00,31.0,31.0,-100.00,SW,220,2.0,5.0,99,0.00,,,0.22,,2013-11-01 09:11:00,
2013-11-01 03:43:00,31.0,31.0,-100.00,ESE,113,2.0,4.0,100,0.00,,,0.22,,2013-11-01 09:43:00,
2013-11-01 04:13:00,31.0,31.0,-100.00,SW,224,4.0,7.0,98,0.00,,,0.22,,2013-11-01 10:13:00,
2013-11-01 04:42:00,31.0,30.0,-100.00,NW,322,4.0,7.0,99,0.00,,,0.22,,2013-11-01 10:42:00,
2013-11-01 05:12:00,31.0,31.0,-100.00,SSW,210,1.0,2.0,98,0.00,,,0.22,,2013-11-01 11:12:00,
2013-11-01 05:42:00,32.0,31.0,-100.00,ESE,103,1.0,3.0,98,0.00,,,0.22,,2013-11-01 11:42:00,
2013-11-01 06:12:00,32.0,31.0,-100.00,SE,145,2.0,4.0,97,0.00,,,0.22,,2013-11-01 12:12:00,
2013-11-01 06:42:00,32.0,31.0,-100.00,NNW,328,4.0,6.0,99,0.00,,,0.22,,2013-11-01 12:42:00,
2013-11-01 07:12:00,32.0,31.0,-100.00,South,185,1.0,1.0,98,0.00,,,0.22,,2013-11-01 13:12:00,
2013-11-01 07:42:00,32.0,31.0,-100.00,West,270,1.0,3.0,97,0.00,,,0.22,,2013-11-01 13:42:00,
2013-11-01 08:11:00,32.0,31.0,-100.00,WNW,287,4.0,6.0,95,0.00,,,0.22,,2013-11-01 14:11:00,
2013-11-01 08:42:00,32.0,30.0,-100.00,West,278,1.0,3.0,92,0.00,,,0.22,,2013-11-01 14:42:00,
2013-11-01 09:11:00,31.0,30.0,-100.00,ESE,110,2.0,3.0,97,0.00,,,0.22,,2013-11-01 15:11:00,
2013-11-01 09:44:00,31.0,31.0,-100.00,SE,127,2.0,3.0,98,0.00,,,0.22,,2013-11-01 15:44:00,
2013-11-01 10:12:00,32.0,31.0,-100.00,SSE,154,1.0,3.0,97,0.00,,,0.22,,2013-11-01 16:12:00,
2013-11-01 10:43:00,32.0,31.0,-100.00,SE,124,4.0,6.0,95,0.00,,,0.22,,2013-11-01 16:43:00,
2013-11-01 11:12:00,34.0,31.0,-100.00,ESE,119,4.0,6.0,90,0.00,,,0.22,,2013-11-01 17:12:00,
2013-11-01 11:43:00,34.0,31.0,-100.00,SE,124,4.0,9.0,90,0.00,,,0.21,,2013-11-01 17:43:00,
2013-11-01 12:12:00,35.0,30.0,-100.00,SSE,162,4.0,8.0,82,0.00,,,0.20,,2013-11-01 18:12:00,
2013-11-01 12:42:00,35.0,27.0,-100.00,West,260,3.0,6.0,74,0.00,,,0.20,,2013-11-01 18:42:00,
2013-11-01 13:12:00,37.0,30.0,-100.00,SE,138,4.0,6.0,74,0.00,,,0.19,,2013-11-01 19:12:00,
2013-11-01 13:42:00,38.0,30.0,-100.00,SE,141,6.0,12.0,71,0.00,,,0.17,,2013-11-01 19:42:00,
2013-11-01 14:12:00,39.0,30.0,-100.00,West,274,3.0,6.0,70,0.00,,,0.15,,2013-11-01 20:12:00,
2013-11-01 14:42:00,38.0,30.0,-100.00,NNW,329,3.0,5.0,72,0.00,,,0.14,,2013-11-01 20:42:00,
2013-11-01 15:11:00,38.0,29.0,-100.00,WSW,240,4.0,8.0,69,0.00,,,0.11,,2013-11-01 21:11:00,
2013-11-01 15:43:00,40.0,29.0,-100.00,South,178,4.0,7.0,67,0.00,,,0.09,,2013-11-01 21:43:00,
2013-11-01 16:13:00,42.0,30.0,-100.00,SSW,210,2.0,3.0,63,0.00,,,0.08,,2013-11-01 22:13:00,
2013-11-01 16:42:00,40.0,28.0,-100.00,SSE,161,3.0,6.0,63,0.00,,,0.06,,2013-11-01 22:42:00,
2013-11-01 17:12:00,39.0,28.0,-100.00,SE,143,5.0,10.0,65,0.00,,,0.06,,2013-11-01 23:12:00,
2013-11-01 17:42:00,40.0,29.0,-100.00,SSW,203,2.0,3.0,64,0.00,,,0.06,,2013-11-01 23:42:00,
2013-11-01 18:11:00,36.0,29.0,-100.00,West,271,2.0,4.0,73,0.00,,,0.04,,2013-11-02 00:11:00,
2013-11-01 18:42:00,35.0,28.0,-100.00,South,181,1.0,2.0,77,0.00,,,0.02,,2013-11-02 00:42:00,
2013-11-01 19:11:00,31.0,28.0,-100.00,WNW,284,2.0,2.0,86,0.00,,,0.02,,2013-11-02 01:11:00,
2013-11-01 19:42:00,30.0,28.0,-100.00,West,277,2.0,2.0,92,0.00,,,0.02,,2013-11-02 01:42:00,
2013-11-01 20:11:00,30.0,28.0,-100.00,NW,308,3.0,4.0,92,0.00,,,0.02,,2013-11-02 02:11:00,
2013-11-01 20:30:00,31.0,28.0,-100.00,NW,304,3.0,4.0,89,0.00,,,0.01,,2013-11-02 02:30:00,
2013-11-01 20:42:00,31.0,28.0,-100.00,West,278,5.0,6.0,88,0.00,,,0.01,,2013-11-02 02:42:00,
2013-11-01 21:11:00,31.0,28.0,-100.00,NW,304,3.0,4.0,89,0.00,,,0.01,,2013-11-02 03:11:00,
2013-11-01 21:21:00,31.0,28.0,-100.00,NW,304,3.0,4.0,89,0.00,,,0.01,,2013-11-02 03:21:00,
2013-11-01 21:53:00,31.0,28.0,-100.00,NW,318,4.0,5.0,89,0.00,,,0.01,,2013-11-02 03:53:00,
2013-11-01 22:04:00,31.0,28.0,-100.00,NW,318,4.0,5.0,89,0.00,,,0.01,,2013-11-02 04:04:00,
2013-11-01 22:24:00,30.0,28.0,-100.00,NW,319,2.0,2.0,91,0.00,,,0.01,,2013-11-02 04:24:00,
2013-11-01 22:34:00,30.0,28.0,-100.00,NW,319,2.0,2.0,91,0.00,,,0.01,,2013-11-02 04:34:00,
2013-11-01 22:54:00,31.0,28.0,-100.00,NW,319,0.0,0.0,91,0.00,,,0.01,,2013-11-02 04:54:00,
2013-11-01 23:04:00,31.0,28.0,-100.00,NW,319,0.0,0.0,91,0.00,,,0.01,,2013-11-02 05:04:00,
2013-11-01 23:22:00,31.0,29.0,-100.00,SE,145,2.0,4.0,93,0.00,,,0.01,,2013-11-02 05:22:00,
2013-11-01 23:34:00,31.0,29.0,-100.00,SE,145,2.0,4.0,93,0.00,,,0.01,,2013-11-02 05:34:00,
2013-11-01 23:52:00,31.0,29.0,-100.00,SSE,150,5.0,6.0,91,0.00,,,0.01,,2013-11-02 05:52:00,